This demonstration page uses our WeatherBlox Daily Observations layout. Learn more.

Left ArrowRight Arrow

47.50024, -111.30081

Hourly Observations for June 11, 2020

Temp ( °F °C ) Dew Point ( °F °C ) Humidity (%) Winds ( mph kmh ) Pressure ( in mb ) Visibility ( mi km ) Precip ( " mm )
12:53 am 00:53 Clear 53 11.7 41 5 64 64 SE 6 9 30.09 1019 10 16 0.00 0.00
1:53 am 01:53 Clear 50 10 40 4.4 68 68 SSW 9 15 30.09 1019 10 16 0.00 0.00
2:53 am 02:53 Clear 49 9.4 39 3.9 69 69 SW 3 6 30.09 1019 10 16 0.00 0.00
3:53 am 03:53 Clear 50 10 40 4.4 68 68 SSW 12 19 30.08 1019 10 16 0.00 0.00
4:53 am 04:53 Clear 45 7.2 38 3.3 77 77 Calm 30.09 1019 10 16 0.00 0.00
5:53 am 05:53 Sunny 48 8.9 39 3.9 71 71 S 7 11 30.10 1019 10 16 0.00 0.00
6:53 am 06:53 Sunny 51 10.6 41 5 69 69 SSW 9 15 30.09 1019 10 16 0.00 0.00
7:53 am 07:53 Sunny 60 15.6 43 6.1 53 53 SSW 8 13 30.08 1019 10 16 0.00 0.00
8:53 am 08:53 Sunny 65 18.3 46 7.8 51 51 SW 9 15 30.10 1019 10 16 0.00 0.00
9:53 am 09:53 Sunny 70 21.1 46 7.8 42 42 SW 15 24 30.11 1020 10 16 0.00 0.00
10:53 am 10:53 Sunny 72 22.2 43 6.1 35 35 SW 14 22 30.10 1019 10 16 0.00 0.00
11:53 am 11:53 Sunny 75 23.9 42 5.6 31 31 SW 12 19 30.09 1019 10 16 0.00 0.00
12:53 pm 12:53 Sunny 77 25 41 5 28 28 W 7 11 30.09 1019 10 16 0.00 0.00
1:53 pm 13:53 Sunny 76 24.4 40 4.4 27 27 VRB 5 7 30.09 1019 10 16 0.00 0.00
2:53 pm 14:53 Sunny 78 25.6 42 5.6 28 28 Calm 30.07 1018 10 16 0.00 0.00
3:53 pm 15:53 Sunny 79 26.1 43 6.1 28 28 ENE 5 7 30.06 1018 10 16 0.00 0.00
4:53 pm 16:53 Sunny 77 25 41 5 28 28 ESE 6 9 30.07 1018 10 16 0.00 0.00
5:53 pm 17:53 Sunny 76 24.4 44 6.7 32 32 E 12 19 30.05 1018 10 16 0.00 0.00
6:53 pm 18:53 Sunny 75 23.9 44 6.7 33 33 E 13 20 30.04 1017 10 16 0.00 0.00
7:53 pm 19:53 Sunny 72 22.2 48 8.9 43 43 E 14 22 30.04 1017 10 16 0.00 0.00
8:53 pm 20:53 Mostly Sunny 70 21.1 44 6.7 39 39 S 13 20 30.05 1018 10 16 0.00 0.00
9:53 pm 21:53 Mostly Clear 67 19.4 46 7.8 47 47 ESE 10 17 30.03 1017 10 16 0.00 0.00
10:53 pm 22:53 Clear 67 19.4 44 6.7 44 44 SSW 12 19 30.04 1017 10 16 0.00 0.00
11:53 pm 23:53 Mostly Clear 69 20.6 43 6.1 39 39 SSE 16 26 30.01 1016 10 16 0.00 0.00

Powered by AerisWeather